Weather in Gayvoron

Russia / Primorsky Krai     44°44′52″N   132°46′22″E
temp.,
°C
wind,
m/s
gust,
m/s
humid.,
%
clouds,
%
prec.,
mm/h
press.,
hPa
HPBL,
m
15 may, sat
sat1501:00+15ssw61554100 0.0 1008611
04:00+15ssw81759100 0.6 1007828
07:00+14ssw112271100 0.0 1006641
10:00+18ssw12207097 0.0 1006704
13:00+20ssw111672100 0.0 1005844
16:00+18sw101680100 0.3 1005885
19:00+11n3698100 11.3 1007237
22:00+11w2599100 20.1 1010188
16 may, sun
sun1601:00+11ssw3691100 0.5 1010120
04:00+10ssw47935 0.5 1009108
07:00+10ssw369194 0.0 1008124
10:00+15sw3262100 0.0 1008427
13:00+16wnw335198 0.0 1008533
16:00+18nnw134391 0.0 1006673
19:00+17ssw0154100 0.0 100511
22:00+13s33588 0.0 100618
17 may, mon
mon1701:00+11ssw456327 0.0 100649
04:00+10ssw46734 0.0 100566
07:00+10ssw59765 0.0 1006138
10:00+16ssw685899 0.0 1005314
13:00+20sw5648100 0.0 1005601
16:00+22ssw243899 0.0 10041218
19:00+20sse2257100 0.0 100425
22:00+15sw3660100 0.0 100599
18 may, tue
tue1801:00+13ssw41053100 0.0 1005156
04:00+12ssw51150100 0.0 1005164
07:00+12ssw5106297 0.0 1006187
10:00+17ssw710540 0.0 1005385
13:00+21ssw810470 0.0 1004690
16:00+23ssw810500 0.0 1002578
19:00+19ssw714580 0.0 1002376
22:00+15ssw717520 0.0 1004382
19 may, wed
wed1901:00+14ssw918523 0.0 1004393
04:00+13ssw8166332 0.0 1004306
07:00+12sw512793 0.0 1007253
10:00+16wsw567110 0.0 1008345
13:00+19w236048 0.0 1007461
16:00+19n2260100 0.0 1006181
19:00+16n3583100 0.9 100782
22:00+14nne0189100 1.6 100910